This is the latest recevied weather packets stored in our database for station/object DH9SB-6. If no packets are shown the sender has not sent any weather packets the latest 1 day(s).
| Time | Temp. | Humidity | Pressure | Rain* | Wind** | Luminosity | Snow |
|---|---|---|---|---|---|---|---|
| 1778087863 | 13.33° C | 89% | - | 1.02 mm | - | - | - |
| 1778086664 | 13.33° C | 88% | - | 1.27 mm | - | - | - |
| 1778083687 | 13.33° C | 86% | - | 1.02 mm | - | - | - |
| 1778083063 | 13.33° C | 85% | - | 1.02 mm | - | - | - |
| 1778081862 | 13.33° C | 85% | - | 1.52 mm | - | - | - |
| 1778080663 | 13.33° C | 83% | - | 1.52 mm | - | - | - |
| 1778080087 | 13.33° C | 82% | - | 1.27 mm | - | - | - |
| 1778079463 | 13.89° C | 81% | - | 1.02 mm | - | - | - |
| 1778078887 | 15° C | 78% | - | 0.25 mm | - | - | - |
| 1778078263 | 15.56° C | 73% | - | 0 mm | - | - | - |
| 1778077351 | 16.67° C | 66% | - | 0 mm | - | - | - |
| 1778076775 | 17.22° C | 63% | - | 0 mm | - | - | - |
| 1778076152 | 17.22° C | 61% | - | 0 mm | - | - | - |
| 1778074951 | 18.33° C | 58% | - | 0 mm | - | - | - |
| 1778074376 | 18.33° C | 55% | - | 0 mm | - | - | - |
| 1778072551 | 19.44° C | 53% | - | 0 mm | - | - | - |
| 1778071351 | 18.89° C | 54% | - | 0 mm | - | - | - |
| 1778067175 | 19.44° C | 55% | - | 0 mm | - | - | - |
| 1778064152 | 18.89° C | 59% | - | 0 mm | - | - | - |
| 1778063576 | 18.33° C | 58% | - | 0 mm | - | - | - |
| 1778062953 | 18.33° C | 55% | - | 0 mm | - | - | - |
| 1778061176 | 18.33° C | 58% | - | 0 mm | - | - | - |
| 1778058152 | 18.33° C | 60% | - | 0 mm | - | - | - |
| 1778057575 | 17.78° C | 60% | - | 0 mm | - | - | - |
| 1778056951 | 18.89° C | 61% | - | 0 mm | - | - | - |
* Rain latest hour (hover to see other rain measurements)
** Current wind speed in m/s (hover to see current wind gust speed)